This is the latest recevied weather packets stored in our database for station/object KI6PPU. If no packets are shown the sender has not sent any weather packets the latest 10 day(s).
| Time | Temp. | Humidity | Pressure | Rain* | Wind** | Luminosity | Snow |
|---|---|---|---|---|---|---|---|
| 1777419066 | 21.11° C | 49% | 1021 hPa | 0 mm | - | 661 W/m² | - |
| 1777418765 | 21.67° C | 49% | 1020.9 hPa | 0 mm | - | 696 W/m² | - |
| 1777418463 | 21.67° C | 49% | 1021 hPa | 0 mm | - | 334 W/m² | - |
| 1777418158 | 21.11° C | 47% | 1021 hPa | 0 mm | - | 568 W/m² | - |
| 1777417855 | 20.56° C | 51% | 1021 hPa | 0 mm | - | 116 W/m² | - |
| 1777417551 | 21.11° C | 51% | 1021.1 hPa | 0 mm | - | 117 W/m² | - |
| 1777417247 | 21.11° C | 51% | 1021 hPa | 0 mm | - | 524 W/m² | - |
| 1777416943 | 21.67° C | 46% | 1020.9 hPa | 0 mm | - | 593 W/m² | - |
| 1777416638 | 21.67° C | 49% | 1020.9 hPa | 0 mm | - | 639 W/m² | - |
| 1777416334 | 21.67° C | 52% | 1020.8 hPa | 0 mm | - | 629 W/m² | - |
| 1777416034 | 21.67° C | 50% | 1020.9 hPa | 0 mm | - | 160 W/m² | - |
| 1777415730 | 21.11° C | 52% | 1020.8 hPa | 0 mm | - | 568 W/m² | - |
| 1777415426 | 21.67° C | 53% | 1020.9 hPa | 0 mm | - | 597 W/m² | - |
| 1777415126 | 21.11° C | 52% | 1021 hPa | 0 mm | - | 708 W/m² | - |
| 1777414821 | 20.56° C | 52% | 1021 hPa | 0 mm | - | 619 W/m² | - |
| 1777414516 | 20.56° C | 53% | 1021.1 hPa | 0 mm | - | 620 W/m² | - |
| 1777414215 | 20.56° C | 51% | 1021.2 hPa | 0 mm | - | 172 W/m² | - |
| 1777413911 | 21.11° C | 54% | 1021.2 hPa | 0 mm | - | 648 W/m² | - |
| 1777413607 | 21.67° C | 53% | 1021.2 hPa | 0 mm | - | 740 W/m² | - |
| 1777413303 | 21.11° C | 53% | 1021.2 hPa | 0 mm | - | 672 W/m² | - |
| 1777412999 | 20.56° C | 61% | 1021.5 hPa | 0 mm | - | 758 W/m² | - |
| 1777412697 | 19.44° C | 58% | 1021.4 hPa | 0 mm | - | 153 W/m² | - |
| 1777412396 | 20° C | 58% | 1021.4 hPa | 0 mm | - | 137 W/m² | - |
| 1777412090 | 20° C | 52% | 1021.3 hPa | 0 mm | - | 365 W/m² | - |
| 1777411785 | 18.89° C | 55% | 1021.5 hPa | 0 mm | - | 349 W/m² | - |
* Rain latest hour (hover to see other rain measurements)
** Current wind speed in m/s (hover to see current wind gust speed)